GW2924 Weather Reports


Display with metric or nautical units.
time (UTC)temp
F
wind
direction
speed
MPH
gust
MPH
rain 1hr
in
rain 24hr
in
rain mn
in
humidity
%
barometer
mb
20260504035552 48 228 1.0 2.0 0.00 0.00 0.00 59 1004.4
20260504035055 48 217 1.0 3.0 0.00 0.00 0.00 58 1004.5
20260504034623 48 231 1.0 3.0 0.00 0.00 0.00 58 1004.5
20260504034057 49 245 1.0 2.0 0.00 0.00 0.00 58 1004.6
20260504033555 49 272 0.0 2.0 0.00 0.00 0.00 55 1004.7
20260504033055 49 159 1.0 2.0 0.00 0.00 0.00 54 1004.7
20260504032554 49 195 0.0 1.0 0.00 0.00 0.00 54 1004.7
20260504032057 49 0 0.0 2.0 0.00 0.00 0.00 55 1004.8
20260504031555 50 0 0.0 2.0 0.00 0.00 0.00 55 1004.9
20260504031055 50 232 1.0 2.0 0.00 0.00 0.00 55 1004.8
20260504030555 50 195 1.0 2.0 0.00 0.00 0.00 54 1004.9
20260504030055 50 181 0.0 2.0 0.00 0.00 0.00 54 1005.0
20260504025555 50 226 1.0 2.0 0.00 0.00 0.00 54 1005.1
20260504025056 50 232 1.0 2.0 0.00 0.00 0.00 53 1005.1
20260504024555 51 205 0.0 2.0 0.00 0.00 0.00 53 1005.1
20260504024052 51 198 0.0 2.0 0.00 0.00 0.00 52 1005.1
20260504023556 51 211 0.0 1.0 0.00 0.00 0.00 51 1005.1
20260504023058 52 0 0.0 1.0 0.00 0.00 0.00 52 1005.1
20260504022553 52 210 0.0 1.0 0.00 0.00 0.00 50 1005.2
20260504022055 52 207 0.0 1.0 0.00 0.00 0.00 50 1005.1
20260504021554 52 0 0.0 1.0 0.00 0.00 0.00 50 1005.1
20260504021056 53 0 0.0 1.0 0.00 0.00 0.00 50 1005.3
20260504020554 53 200 0.0 0.0 0.00 0.00 0.00 48 1005.1
20260504020117 54 194 0.0 0.0 0.00 0.00 0.00 47 1005.1
20260504015552 55 0 0.0 0.0 0.00 0.00 0.00 46 1005.1
20260504015051 56 0 0.0 1.0 0.00 0.00 0.00 44 1005.1
20260504014600 56 0 0.0 2.0 0.00 0.00 0.00 43 1005.1
20260504014055 57 194 0.0 2.0 0.00 0.00 0.00 42 1005.1
20260504013558 57 190 0.0 1.0 0.00 0.00 0.00 43 1005.1
20260504013123 58 0 0.0 0.0 0.00 0.00 0.00 43 1005.1
20260504012555 58 0 0.0 1.0 0.00 0.00 0.00 42 1005.1
20260504012051 59 0 0.0 2.0 0.00 0.00 0.00 40 1005.1
20260504011554 60 0 1.0 2.0 0.00 0.00 0.00 38 1005.1
20260504011052 60 193 0.0 1.0 0.00 0.00 0.00 39 1005.1
20260504010552 61 221 0.0 3.0 0.00 0.00 0.00 37 1005.1
20260504010055 62 200 0.0 3.0 0.00 0.00 0.00 36 1005.1
20260504005554 62 262 1.0 3.0 0.00 0.00 0.00 35 1005.1
20260504005054 63 289 2.0 4.0 0.00 0.00 0.00 35 1005.1
20260504004558 64 288 2.0 4.0 0.00 0.00 0.00 35 1005.1
20260504004053 64 303 1.0 4.0 0.00 0.00 0.00 33 1005.1
20260504003553 64 307 2.0 7.0 0.00 0.00 0.00 33 1005.1
20260504003057 65 287 2.0 7.0 0.00 0.00 0.00 32 1005.1
20260504002556 65 314 3.0 7.0 0.00 0.00 0.00 31 1005.1
20260504002056 66 312 1.0 5.0 0.00 0.00 0.00 32 1005.2
20260504001556 66 294 2.0 5.0 0.00 0.00 0.00 29 1005.2
20260504001057 67 294 2.0 5.0 0.00 0.00 0.00 31 1005.3
20260504000553 67 291 2.0 5.0 0.00 0.00 0.00 29 1005.3
20260504000107 68 283 3.0 5.0 0.00 0.00 0.00 30 1005.3
20260503235556 68 271 3.0 7.0 0.00 0.00 0.00 30 1005.4
20260503235058 68 255 2.0 7.0 0.00 0.00 0.00 29 1005.3
20260503234558 69 299 2.0 6.0 0.00 0.00 0.00 29 1005.3
20260503234057 69 297 2.0 6.0 0.00 0.00 0.00 29 1005.3
20260503233559 69 289 2.0 7.0 0.00 0.00 0.00 29 1005.4
20260503233058 69 314 3.0 8.0 0.00 0.00 0.00 29 1005.4
20260503232556 69 295 4.0 8.0 0.00 0.00 0.00 29 1005.4
20260503232056 69 307 4.0 8.0 0.00 0.00 0.00 28 1005.4
20260503231555 69 303 3.0 7.0 0.00 0.00 0.00 28 1005.5
20260503231100 69 271 3.0 9.0 0.00 0.00 0.00 27 1005.4
20260503230557 69 311 3.0 9.0 0.00 0.00 0.00 26 1005.5
20260503230101 69 286 4.0 10.0 0.00 0.00 0.00 28 1005.5
20260503225553 70 319 4.0 10.0 0.00 0.00 0.00 27 1005.5
20260503225057 70 285 2.0 9.0 0.00 0.00 0.00 29 1005.5
20260503224601 70 259 2.0 12.0 0.00 0.00 0.00 30 1005.5
20260503224057 69 286 6.0 12.0 0.00 0.00 0.00 31 1005.4
20260503223555 70 308 4.0 12.0 0.00 0.00 0.00 30 1005.4
20260503223056 70 297 3.0 7.0 0.00 0.00 0.00 31 1005.4
20260503222555 70 294 3.0 8.0 0.00 0.00 0.00 30 1005.4
20260503222056 70 297 4.0 9.0 0.00 0.00 0.00 28 1005.4
20260503221603 70 291 4.0 9.0 0.00 0.00 0.00 28 1005.4
20260503221058 70 189 4.0 7.0 0.00 0.00 0.00 28 1005.5
20260503220557 70 262 3.0 7.0 0.00 0.00 0.00 27 1005.4
20260503220055 70 307 4.0 9.0 0.00 0.00 0.00 28 1005.5
20260503215556 69 274 4.0 9.0 0.00 0.00 0.00 27 1005.4
20260503215056 70 269 3.0 9.0 0.00 0.00 0.00 27 1005.4
20260503214558 70 298 3.0 11.0 0.00 0.00 0.00 28 1005.4
20260503214058 69 311 5.0 11.0 0.00 0.00 0.00 28 1005.4
20260503213554 70 271 4.0 9.0 0.00 0.00 0.00 30 1005.4
20260503213102 70 264 3.0 11.0 0.00 0.00 0.00 33 1005.5
20260503212556 69 306 4.0 11.0 0.00 0.00 0.00 31 1005.5
20260503212056 70 230 4.0 7.0 0.00 0.00 0.00 32 1005.5
20260503211553 70 295 3.0 7.0 0.00 0.00 0.00 29 1005.5
20260503211055 70 332 2.0 7.0 0.00 0.00 0.00 35 1005.5
20260503210553 70 294 2.0 9.0 0.00 0.00 0.00 34 1005.5
20260503210053 70 307 4.0 9.0 0.00 0.00 0.00 30 1005.6
20260503205553 69 297 3.0 9.0 0.00 0.00 0.00 29 1005.7
20260503205053 69 327 3.0 9.0 0.00 0.00 0.00 33 1005.8
20260503204619 70 298 4.0 9.0 0.00 0.00 0.00 33 1005.8
20260503204052 70 297 2.0 10.0 0.00 0.00 0.00 32 1005.9
20260503203552 69 305 4.0 10.0 0.00 0.00 0.00 31 1005.9
20260503203059 69 270 3.0 11.0 0.00 0.00 0.00 33 1006.1
20260503202556 69 307 6.0 11.0 0.00 0.00 0.00 30 1006.1
20260503202100 69 255 6.0 11.0 0.00 0.00 0.00 33 1006.2
20260503201555 70 295 3.0 9.0 0.00 0.00 0.00 33 1006.1
20260503201053 70 286 4.0 9.0 0.00 0.00 0.00 32 1006.1
20260503200557 70 289 2.0 8.0 0.00 0.00 0.00 33 1006.1
20260503200101 69 290 4.0 10.0 0.00 0.00 0.00 29 1006.1
20260503195556 69 317 4.0 10.0 0.00 0.00 0.00 32 1006.1
20260503195056 70 291 4.0 9.0 0.00 0.00 0.00 31 1006.1
20260503194602 70 290 3.0 12.0 0.00 0.00 0.00 35 1006.2
20260503194054 70 295 5.0 12.0 0.00 0.00 0.00 33 1006.1
20260503193556 70 262 3.0 8.0 0.00 0.00 0.00 35 1006.2
20260503193108 70 299 3.0 9.0 0.00 0.00 0.00 37 1006.1
20260503192553 69 240 4.0 9.0 0.00 0.00 0.00 38 1006.2
20260503192053 69 307 5.0 11.0 0.00 0.00 0.00 40 1006.3
20260503191614 68 257 3.0 11.0 0.00 0.00 0.00 38 1006.2
20260503191056 69 295 6.0 10.0 0.00 0.00 0.00 39 1006.4
20260503190554 69 322 4.0 10.0 0.00 0.00 0.00 38 1006.4
20260503190057 69 297 4.0 7.0 0.00 0.00 0.00 34 1006.2
20260503185558 69 331 3.0 10.0 0.00 0.00 0.00 36 1006.4
20260503185052 69 314 3.0 10.0 0.00 0.00 0.00 39 1006.4
20260503184600 69 351 4.0 9.0 0.00 0.00 0.00 40 1006.3
20260503184057 69 266 4.0 9.0 0.00 0.00 0.00 38 1006.3
20260503183556 69 350 3.0 8.0 0.00 0.00 0.00 33 1006.4
20260503183058 69 281 3.0 8.0 0.00 0.00 0.00 34 1006.4
20260503182556 69 276 3.0 7.0 0.00 0.00 0.00 35 1006.4
20260503182057 69 301 4.0 8.0 0.00 0.00 0.00 33 1006.4
20260503181555 69 338 4.0 9.0 0.00 0.00 0.00 32 1006.5
20260503181054 69 308 4.0 10.0 0.00 0.00 0.00 33 1006.5
20260503180556 69 293 5.0 10.0 0.00 0.00 0.00 35 1006.6
20260503180100 69 293 4.0 11.0 0.00 0.00 0.00 39 1006.5
20260503175556 69 283 3.0 11.0 0.00 0.00 0.00 34 1006.6
20260503175056 68 346 3.0 9.0 0.00 0.00 0.00 39 1006.6
20260503174556 68 302 4.0 9.0 0.00 0.00 0.00 37 1006.7
20260503174053 68 284 5.0 9.0 0.00 0.00 0.00 36 1006.7
20260503173557 68 303 2.0 9.0 0.00 0.00 0.00 38 1006.7
20260503173100 68 304 4.0 9.0 0.00 0.00 0.00 38 1006.7
20260503172552 68 321 4.0 8.0 0.00 0.00 0.00 38 1006.8
20260503172058 67 314 3.0 12.0 0.00 0.00 0.00 44 1006.9
20260503171558 68 297 6.0 12.0 0.00 0.00 0.00 39 1006.9
20260503171056 68 302 3.0 9.0 0.00 0.00 0.00 45 1006.8
20260503170553 68 340 5.0 13.0 0.00 0.00 0.00 38 1006.8
20260503170111 67 266 3.0 13.0 0.00 0.00 0.00 41 1006.7
20260503160109 64 1 5.0 8.0 0.00 0.00 0.00 44 1006.6
20260503150556 61 281 3.0 8.0 0.00 0.00 0.00 48 1006.2
20260503131055 56 249 3.0 12.0 0.00 0.00 0.00 52 1005.8
20260503130555 56 144 5.0 15.0 0.00 0.00 0.00 51 1005.8
20260503110555 50 167 4.0 10.0 0.00 0.00 0.00 59 1005.3
20260503100105 53 181 8.0 17.0 0.00 0.00 0.00 56 1005.8
20260503081554 55 211 4.0 12.0 0.00 0.00 0.00 47 1007.1
20260503081051 55 131 5.0 12.0 0.00 0.00 0.00 49 1007.2
20260503080555 55 208 4.0 13.0 0.00 0.00 0.00 49 1007.4
20260503072552 54 177 2.0 7.0 0.00 0.00 0.00 56 1008.5
20260503072052 54 243 1.0 8.0 0.00 0.00 0.00 56 1008.7
20260503071611 55 230 5.0 8.0 0.00 0.00 0.00 53 1009.0
20260503071051 55 255 6.0 8.0 0.00 0.00 0.00 51 1009.1
20260503070552 55 250 5.0 7.0 0.00 0.00 0.00 51 1009.1
20260503055055 53 223 3.0 7.0 0.00 0.00 0.00 54 1009.2
20260503054611 53 184 2.0 6.0 0.00 0.00 0.00 54 1009.1
20260503054055 53 184 2.0 6.0 0.00 0.00 0.00 53 1009.1
20260503053555 53 186 2.0 5.0 0.00 0.00 0.00 53 1009.1
20260503053057 54 136 2.0 5.0 0.00 0.00 0.00 53 1009.1
20260503052555 54 94 2.0 5.0 0.00 0.00 0.00 52 1009.3
20260503052054 54 115 1.0 5.0 0.00 0.00 0.00 51 1009.3
20260503051553 54 86 1.0 7.0 0.00 0.00 0.00 51 1009.4
20260503051053 54 83 2.0 9.0 0.00 0.00 0.00 51 1009.5
20260503050554 54 92 3.0 9.0 0.00 0.00 0.00 52 1009.6
20260503050056 54 214 3.0 9.0 0.00 0.00 0.00 52 1009.7
20260503045554 54 97 1.0 4.0 0.00 0.00 0.00 53 1009.8
20260503045053 54 155 1.0 3.0 0.00 0.00 0.00 53 1009.9
20260503044559 54 79 1.0 5.0 0.00 0.00 0.00 53 1009.9
20260503044053 54 91 2.0 6.0 0.00 0.00 0.00 53 1009.8
20260503043553 54 184 2.0 6.0 0.00 0.00 0.00 53 1009.9
20260503043057 55 161 2.0 4.0 0.00 0.00 0.00 52 1009.9
20260503042556 55 195 1.0 3.0 0.00 0.00 0.00 51 1009.9
20260503042053 55 204 0.0 3.0 0.00 0.00 0.00 51 1010.0
20260503041554 55 54 1.0 3.0 0.00 0.00 0.00 51 1010.1
20260503041057 55 52 0.0 3.0 0.00 0.00 0.00 52 1010.2
20260503040553 55 0 0.0 3.0 0.00 0.00 0.00 52 1010.1
20260503040058 54 169 1.0 3.0 0.00 0.00 0.00 52 1010.3